Weather WX

World > North America > United States > Minnesota

Shingobee, Minnesota Regional Weather

Lat: 47.12N, Lon: 94.61W
Wx Zone: MNZ025
Warning FLW WEATHER ALERT - (More Info. Click Here) Warning
Feedback

Shingobee, MN Regional Weather

Expires:201906171100;;207815
ASUS43 KMPX 171010
RWRMN 
WEATHER ROUNDUP FOR MINNESOTA
NATIONAL WEATHER SERVICE TWIN CITIES/CHANHASSEN MN
500 AM CDT MON JUN 17 2019


NOTE: "FAIR" INDICATES FEW OR NO CLOUDS BELOW 12,000 FEET WITH NO
SIGNIFICANT WEATHER AND/OR OBSTRUCTIONS TO VISIBILITY. N/A MEANS
CURRENT SKY AND/OR WEATHER CONDITIONS ARE NOT AVAILABLE.


MNZ006-009>011-018-025>026-171100-
   North Central Minnesota   
  
CITY           SKY/WX    TMP DP  RH WIND       PRES   REMARKS
FLAG ISLAND    LGT RAIN  54  50  87 E6        29.91S                  
INTL FALLS     CLOUDY    52  50  93 E7        29.93F                  
WASKISH        CLOUDY    52  52 100 SE5       29.89S                  
BIG FORK       FAIR      48  45  87 CALM      29.97F                  
LONGVILLE      FAIR      45  45 100 CALM      29.93R FOG              
GRAND RAPIDS   MOCLDY    47  45  93 SE3       29.95S                  
CRANE LAKE     CLOUDY    48  48 100 CALM      29.98S                  
ORR            CLOUDY    48  45  87 CALM      29.93S                  
COOK           CLOUDY    48  48 100 CALM      29.95S                  
WALKER         PTSUNNY   49  49  99 SW5       29.92R                  
$$

SKY/WX - Weather  TMP - Temperature  DP - Dew Point  RH - Relative Humidity
WIND - Wind Direction/Speed PRES - Barometric Pressure VSB - Visibility
WCI - Wind Chill Index E13G22 Wind - East Wind 13 mph/Gusts of 22 mph